GW3793 Weather Reports


Display with metric or nautical units.
time (UTC)temp
F
wind
direction
speed
MPH
gust
MPH
rain 1hr
in
rain 24hr
in
rain mn
in
humidity
%
barometer
mb
20260903172703 50 163 2.0 4.0 0.00 0.13 0.01 85 1008.6
20260903171803 50 164 2.0 6.0 0.00 0.13 0.00 84 1008.7
20260903170903 50 152 2.0 6.0 0.00 0.13 0.00 83 1008.5
20260903170003 50 168 2.0 3.0 0.00 0.13 0.00 85 1008.3
20260903165403 50 167 2.0 4.0 0.00 0.13 0.00 85 1008.3
20260903164503 50 174 2.0 4.0 0.00 0.13 0.00 84 1008.3
20260903163603 50 163 2.0 5.0 0.00 0.13 0.00 85 1008.4
20260903162703 50 163 2.0 4.0 0.00 0.13 0.00 85 1008.1
20260903161803 49 150 1.0 3.0 0.00 0.13 0.00 87 1008.3
20260903161118 49 155 1.0 3.0 0.00 0.13 0.00 87 1008.3
20260903160003 49 161 2.0 5.0 0.00 0.13 0.00 89 1008.1
20260903155403 48 170 2.0 5.0 0.00 0.13 0.00 89 1008.0
20260903154718 48 160 2.0 5.0 0.00 0.13 0.00 89 1008.0
20260903153603 48 167 2.0 7.0 0.00 0.12 0.00 89 1008.3
20260903152917 48 172 1.0 3.0 0.00 0.12 0.00 90 1007.9
20260903152018 48 165 1.0 2.0 0.00 0.12 0.00 90 1007.9
20260903150903 48 168 1.0 3.0 0.00 0.12 0.00 90 1008.1
20260903150003 48 161 1.0 3.0 0.00 0.12 0.00 90 1007.8
20260903145403 47 169 1.0 3.0 0.00 0.12 0.00 89 1007.9
20260903144503 47 174 1.0 3.0 0.00 0.12 0.00 89 1007.9
20260903143817 47 175 1.0 4.0 0.00 0.12 0.00 90 1007.8
20260903142703 48 175 1.0 2.0 0.00 0.12 0.00 90 1007.8
20260903141803 48 163 2.0 6.0 0.00 0.12 0.00 90 1007.5
20260903140903 48 161 1.0 6.0 0.00 0.12 0.00 91 1007.4
20260903140004 48 177 0.0 2.0 0.00 0.12 0.00 91 1007.6
20260903135403 48 157 1.0 4.0 0.00 0.12 0.00 91 1007.5
20260903134503 48 171 1.0 4.0 0.00 0.12 0.00 92 1007.2
20260903133603 48 152 0.0 3.0 0.00 0.12 0.00 92 1007.5
20260903132703 48 178 0.0 3.0 0.00 0.12 0.00 91 1007.4
20260903131803 48 150 0.0 1.0 0.00 0.12 0.00 91 1007.1
20260903130903 48 120 0.0 2.0 0.00 0.12 0.00 91 1007.0
20260903130003 49 153 1.0 2.0 0.00 0.12 0.00 91 1006.9
20260903125403 49 170 1.0 2.0 0.00 0.12 0.00 90 1006.9
20260903124503 49 139 1.0 2.0 0.00 0.12 0.00 90 1006.9
20260903123603 49 82 0.0 1.0 0.00 0.12 0.00 90 1007.1
20260903122918 49 0 0.0 0.0 0.00 0.12 0.00 89 1007.0
20260903121803 49 51 0.0 2.0 0.00 0.12 0.00 89 1006.8
20260903121116 50 173 0.0 3.0 0.00 0.12 0.00 88 1006.9
20260903120003 50 174 3.0 6.0 0.00 0.12 0.00 87 1006.8
20260903115617 50 171 2.0 6.0 0.00 0.12 0.00 86 1006.8
20260903114503 50 162 2.0 6.0 0.00 0.12 0.00 87 1006.3
20260903113603 50 157 2.0 5.0 0.00 0.12 0.00 88 1006.5
20260903112704 50 162 2.0 5.0 0.00 0.12 0.00 88 1006.8
20260903111803 51 163 2.0 6.0 0.00 0.12 0.00 89 1006.6
20260903110903 51 166 2.0 6.0 0.00 0.12 0.00 88 1006.7
20260903110003 51 165 2.0 7.0 0.00 0.12 0.00 87 1006.7
20260903105403 51 163 2.0 7.0 0.00 0.12 0.00 87 1006.7
20260903104503 51 172 3.0 8.0 0.00 0.12 0.00 86 1006.6
20260903103603 51 173 3.0 7.0 0.00 0.12 0.00 87 1006.3
20260903102704 51 163 3.0 7.0 0.00 0.12 0.00 86 1006.6
20260903101803 51 165 3.0 8.0 0.00 0.12 0.00 86 1006.3
20260903100903 51 165 2.0 5.0 0.00 0.12 0.00 87 1006.3
20260903100004 51 166 3.0 11.0 0.00 0.12 0.00 87 1006.2
20260903095403 51 166 3.0 11.0 0.00 0.12 0.00 88 1006.0
20260903094718 51 158 2.0 6.0 0.00 0.12 0.00 88 1006.0
20260903093603 51 155 2.0 5.0 0.00 0.12 0.00 88 1005.8
20260903092703 51 152 2.0 6.0 0.00 0.12 0.00 88 1005.9
20260903092018 51 156 3.0 6.0 0.00 0.12 0.00 88 1006.0
20260903090903 51 166 3.0 5.0 0.00 0.12 0.00 88 1005.6
20260903090004 51 164 3.0 6.0 0.00 0.12 0.00 87 1005.9
20260903085403 51 165 2.0 6.0 0.00 0.12 0.00 87 1006.0
20260903084717 51 167 2.0 4.0 0.00 0.12 0.00 87 1005.8
20260903083604 51 166 3.0 7.0 0.00 0.12 0.00 87 1005.8
20260903082703 51 166 3.0 8.0 0.00 0.12 0.00 87 1005.9
20260903082017 51 158 3.0 9.0 0.00 0.12 0.00 88 1005.8
20260903080903 51 160 3.0 8.0 0.00 0.12 0.00 89 1005.7
20260903080003 51 158 3.0 10.0 0.00 0.12 0.00 90 1005.4
20260903075618 51 158 3.0 11.0 0.00 0.12 0.00 89 1005.7
20260903074503 51 158 3.0 7.0 0.00 0.12 0.00 90 1005.7
20260903073603 51 161 2.0 7.0 0.00 0.12 0.00 90 1005.3
20260903072703 51 121 2.0 6.0 0.00 0.12 0.00 89 1005.6
20260903071803 51 144 2.0 6.0 0.00 0.12 0.00 90 1005.6
20260903070903 51 139 2.0 8.0 0.00 0.12 0.00 90 1005.6
20260903070218 51 145 3.0 9.0 0.00 0.12 0.00 90 1005.6
20260903065617 51 146 3.0 9.0 0.00 0.12 0.12 91 1005.1
20260903064503 50 148 3.0 10.0 0.00 0.12 0.12 92 1005.2
20260903063604 49 142 2.0 10.0 0.00 0.12 0.12 92 1005.2
20260903062703 49 128 2.0 6.0 0.00 0.12 0.12 91 1005.2
20260903061803 49 118 2.0 6.0 0.00 0.12 0.12 91 1005.2
20260903061118 49 114 3.0 9.0 0.00 0.12 0.12 92 1005.2
20260903060003 49 120 3.0 9.0 0.00 0.12 0.12 92 1005.2
20260903055403 49 124 3.0 9.0 0.00 0.12 0.12 91 1005.3
20260903054717 49 122 3.0 8.0 0.00 0.12 0.12 91 1005.1
20260903053818 49 120 3.0 9.0 0.00 0.12 0.12 91 1005.0
20260903052703 49 116 3.0 13.0 0.00 0.12 0.12 92 1005.1
20260903051803 49 120 3.0 12.0 0.00 0.12 0.12 92 1005.2
20260903050903 49 114 2.0 8.0 0.00 0.12 0.12 93 1005.0
20260903050003 49 112 2.0 5.0 0.00 0.12 0.12 92 1005.1
20260903045403 49 112 2.0 6.0 0.00 0.12 0.12 93 1005.0
20260903044718 49 116 2.0 7.0 0.00 0.12 0.12 92 1005.3
20260903043603 49 97 2.0 11.0 0.00 0.12 0.12 93 1005.0
20260903042703 49 93 2.0 6.0 0.00 0.12 0.12 93 1005.0
20260903041803 49 84 1.0 5.0 0.00 0.12 0.12 92 1004.8
20260903040903 49 54 0.0 4.0 0.00 0.12 0.12 91 1005.1
20260903040003 49 79 0.0 4.0 0.00 0.12 0.12 91 1005.0
20260903035404 49 75 0.0 2.0 0.00 0.12 0.12 91 1005.1
20260903034503 49 70 1.0 5.0 0.00 0.12 0.12 91 1004.9
20260903033603 50 53 0.0 2.0 0.00 0.12 0.12 91 1005.0
20260903032703 50 62 0.0 2.0 0.00 0.12 0.12 91 1005.0
20260903031803 50 45 1.0 4.0 0.00 0.12 0.12 90 1004.9
20260903030903 50 58 1.0 3.0 0.00 0.12 0.12 90 1004.8
20260903030004 50 34 1.0 3.0 0.00 0.13 0.12 89 1004.9
20260903025403 50 69 1.0 5.0 0.00 0.13 0.12 90 1004.7
20260903024717 50 67 1.0 4.0 0.00 0.13 0.12 89 1004.8
20260903023603 50 349 0.0 2.0 0.00 0.13 0.12 89 1004.7
20260903022703 51 351 1.0 2.0 0.00 0.13 0.12 89 1004.7
20260903021803 51 23 1.0 3.0 0.00 0.13 0.12 89 1004.8
20260903020903 51 55 1.0 4.0 0.00 0.13 0.12 89 1005.1
20260903020218 51 56 0.0 4.0 0.00 0.13 0.12 89 1005.2
20260903015404 51 98 0.0 2.0 0.00 0.13 0.12 88 1004.9
20260903014503 51 111 0.0 3.0 0.02 0.13 0.12 88 1005.3
20260903013603 51 169 0.0 2.0 0.12 0.13 0.12 87 1004.8
20260903012703 51 27 1.0 4.0 0.12 0.13 0.12 86 1004.7
20260903011803 51 19 1.0 3.0 0.12 0.13 0.12 85 1004.9
20260903010903 51 156 0.0 2.0 0.12 0.13 0.12 85 1005.1
20260903010003 52 153 1.0 3.0 0.12 0.13 0.12 81 1005.3
20260903005403 53 150 1.0 6.0 0.12 0.13 0.12 80 1005.1
20260903004503 56 185 5.0 25.0 0.11 0.11 0.11 73 1005.4
20260903003603 58 179 3.0 8.0 0.00 0.01 0.00 68 1005.2
20260903002917 58 166 3.0 7.0 0.00 0.01 0.00 67 1004.2
20260903001803 59 160 4.0 10.0 0.00 0.01 0.00 67 1004.3
20260903000903 60 164 5.0 23.0 0.00 0.01 0.00 65 1004.3
20260903000218 62 145 5.0 23.0 0.00 0.01 0.00 59 1004.4
20260902235403 64 158 5.0 17.0 0.00 0.01 0.00 54 1004.7
20260902234503 65 168 5.0 14.0 0.00 0.01 0.00 52 1004.2
20260902233604 64 168 5.0 14.0 0.00 0.01 0.00 54 1004.2
20260902232703 64 168 5.0 11.0 0.00 0.01 0.00 51 1004.1
20260902232018 64 174 5.0 18.0 0.00 0.01 0.00 53 1003.9
20260902231117 65 169 6.0 18.0 0.00 0.01 0.00 51 1004.3
20260902230217 65 172 5.0 12.0 0.00 0.01 0.00 50 1004.1
20260902225403 66 168 4.0 13.0 0.00 0.01 0.00 51 1004.0
20260902224503 66 171 5.0 12.0 0.00 0.01 0.00 52 1004.2
20260902223603 66 176 4.0 12.0 0.00 0.01 0.00 52 1004.2
20260902222705 66 168 5.0 13.0 0.00 0.01 0.00 51 1004.5
20260902221803 67 171 5.0 13.0 0.00 0.01 0.00 49 1004.3
20260902220903 66 172 6.0 17.0 0.00 0.01 0.00 50 1004.4
20260902220003 66 160 4.0 11.0 0.00 0.01 0.00 50 1004.3
20260902215403 67 160 5.0 14.0 0.00 0.01 0.00 48 1004.3
20260902214503 69 160 5.0 15.0 0.00 0.01 0.00 47 1004.8
20260902213603 69 168 6.0 16.0 0.00 0.01 0.00 47 1004.8
20260902212704 68 165 6.0 16.0 0.00 0.01 0.00 51 1004.9
20260902211803 66 171 5.0 16.0 0.00 0.01 0.00 52 1005.1
20260902211117 67 174 5.0 10.0 0.00 0.01 0.00 49 1005.2
20260902210005 67 167 5.0 15.0 0.00 0.01 0.00 49 1004.9
20260902205403 66 167 5.0 13.0 0.00 0.01 0.00 52 1005.1
20260902204503 65 163 5.0 10.0 0.00 0.01 0.00 53 1005.0
20260902203603 66 168 5.0 19.0 0.00 0.01 0.00 51 1005.3
20260902202918 66 170 6.0 19.0 0.00 0.01 0.00 52 1005.2
20260902201803 65 171 6.0 17.0 0.00 0.01 0.00 55 1005.4
20260902200903 64 171 6.0 15.0 0.00 0.01 0.00 53 1005.1
20260902200003 63 164 5.0 16.0 0.00 0.01 0.00 55 1005.4
20260902195403 63 168 6.0 16.0 0.00 0.01 0.00 57 1005.1
20260902194503 63 171 5.0 12.0 0.00 0.01 0.00 56 1005.4
20260902193603 64 168 5.0 11.0 0.00 0.01 0.00 56 1005.3
20260902192703 63 172 5.0 17.0 0.00 0.01 0.00 60 1005.6
20260902191803 63 169 5.0 13.0 0.00 0.01 0.00 57 1005.4
20260902190903 62 168 5.0 12.0 0.00 0.01 0.00 59 1005.4
20260902190003 62 168 5.0 13.0 0.00 0.01 0.00 61 1005.4
20260902185403 62 173 6.0 13.0 0.00 0.01 0.00 57 1005.4
20260902184503 62 166 5.0 15.0 0.00 0.01 0.00 60 1005.7
20260902183603 62 167 4.0 11.0 0.00 0.01 0.00 56 1005.7
20260902182917 62 170 4.0 11.0 0.00 0.01 0.00 59 1005.6
20260902181803 62 173 4.0 7.0 0.00 0.01 0.00 59 1005.7
20260902181118 62 175 4.0 10.0 0.00 0.01 0.00 59 1005.8
20260902180005 62 171 5.0 11.0 0.00 0.01 0.00 58 1005.9
20260902175403 62 173 4.0 9.0 0.00 0.01 0.00 59 1005.8
20260902174718 62 170 4.0 9.0 0.00 0.01 0.00 59 1005.8
20260902173605 61 171 4.0 9.0 0.00 0.01 0.00 60 1005.8